Location: Sankt+Gallen
(47.4262°N, 9.3755°E)
Time: 09:56:29
(UTC+01:00)

ARIANE 6 FM1 Upper Stage - Pass Details

Date: 21 February 2026
Orbit: 523 x 606 km, 62.0° (Epoch: 14 March)

Event Time Altitude Azimuth Distance (km) Brightness Sun altitude
Rises 18:37:29 0° 312° (NW) 2,660 6.8 -7.9°
Reaches altitude 10° 18:39:45 10° 305° (NW) 1,768 6.0 -8.2°
Maximum altitude 18:43:29 41° 235° (SW) 775 4.0 -8.9°
Drops below altitude 10° 18:47:13 10° 165° (SSE) 1,773 5.1 -9.5°
Sets 18:49:30 0° 158° (SSE) 2,669 5.9 -9.9°
